| time (UTC) | temp F | wind direction | speed MPH | gust MPH | rain 1hr in | rain 24hr in | rain mn in | humidity % | barometer mb |
| 20260505121026 | 65 | 216 | 3.0 | 14.0 | 0.00 | 0.00 | 0.00 | 68 | 1015.3 |
| 20260505120527 | 65 | 221 | 2.0 | 14.0 | 0.00 | 0.00 | 0.00 | 69 | 1015.3 |
| 20260505120027 | 65 | 162 | 9.0 | 14.0 | 0.00 | 0.00 | 0.00 | 69 | 1015.3 |
| 20260505115527 | 65 | 230 | 6.0 | 14.0 | 0.00 | 0.00 | 0.00 | 69 | 1014.9 |
| 20260505115027 | 65 | 162 | 9.0 | 14.0 | 0.00 | 0.00 | 0.00 | 69 | 1014.9 |
| 20260505114526 | 65 | 220 | 4.0 | 15.0 | 0.00 | 0.00 | 0.00 | 69 | 1014.9 |
| 20260505114026 | 65 | 212 | 13.0 | 16.0 | 0.00 | 0.00 | 0.00 | 70 | 1014.9 |
| 20260505113526 | 64 | 224 | 3.0 | 16.0 | 0.00 | 0.00 | 0.00 | 70 | 1014.9 |
| 20260505113027 | 64 | 224 | 9.0 | 12.0 | 0.00 | 0.00 | 0.00 | 70 | 1014.9 |
| 20260505112526 | 64 | 219 | 10.0 | 14.0 | 0.00 | 0.00 | 0.00 | 69 | 1015.0 |
| 20260505111526 | 64 | 221 | 12.0 | 16.0 | 0.00 | 0.00 | 0.00 | 69 | 1015.0 |
| 20260505111026 | 64 | 252 | 6.0 | 16.0 | 0.00 | 0.00 | 0.00 | 69 | 1014.9 |
| 20260505110526 | 64 | 200 | 6.0 | 17.0 | 0.00 | 0.00 | 0.00 | 69 | 1014.9 |
| 20260505102026 | 64 | 224 | 7.0 | 16.0 | 0.00 | 0.00 | 0.00 | 69 | 1014.3 |
| 20260505101526 | 64 | 200 | 10.0 | 13.0 | 0.00 | 0.00 | 0.00 | 70 | 1014.3 |
| 20260505101026 | 63 | 269 | 3.0 | 13.0 | 0.00 | 0.00 | 0.00 | 70 | 1014.3 |
| 20260505100526 | 63 | 198 | 2.0 | 12.0 | 0.00 | 0.00 | 0.00 | 71 | 1014.3 |
| 20260505100026 | 63 | 250 | 5.0 | 12.0 | 0.00 | 0.00 | 0.00 | 71 | 1014.3 |
| 20260505095526 | 63 | 219 | 12.0 | 12.0 | 0.00 | 0.00 | 0.00 | 71 | 1014.2 |
| 20260505094026 | 64 | 262 | 11.0 | 16.0 | 0.00 | 0.00 | 0.00 | 70 | 1013.9 |
| 20260505093526 | 64 | 203 | 6.0 | 16.0 | 0.00 | 0.00 | 0.00 | 70 | 1013.9 |
| 20260505093026 | 64 | 115 | 4.0 | 16.0 | 0.00 | 0.00 | 0.00 | 70 | 1013.9 |
| 20260505092526 | 64 | 259 | 16.0 | 16.0 | 0.00 | 0.00 | 0.00 | 70 | 1013.8 |
| 20260505092026 | 64 | 198 | 6.0 | 13.0 | 0.00 | 0.00 | 0.00 | 70 | 1013.8 |
| 20260505091526 | 64 | 236 | 5.0 | 13.0 | 0.00 | 0.00 | 0.00 | 70 | 1013.8 |
| 20260505090526 | 64 | 181 | 6.0 | 13.0 | 0.00 | 0.00 | 0.00 | 70 | 1013.8 |
| 20260505090026 | 64 | 239 | 7.0 | 15.0 | 0.00 | 0.00 | 0.00 | 70 | 1013.8 |
| 20260505085526 | 64 | 243 | 7.0 | 15.0 | 0.00 | 0.00 | 0.00 | 70 | 1013.9 |
| 20260505085026 | 64 | 257 | 3.0 | 13.0 | 0.00 | 0.00 | 0.00 | 70 | 1013.9 |
| 20260505084527 | 64 | 245 | 0.0 | 13.0 | 0.00 | 0.00 | 0.00 | 70 | 1013.9 |
| 20260505084026 | 64 | 257 | 4.0 | 14.0 | 0.00 | 0.00 | 0.00 | 70 | 1013.9 |
| 20260505083526 | 64 | 218 | 1.0 | 14.0 | 0.00 | 0.00 | 0.00 | 69 | 1013.9 |
| 20260505083026 | 64 | 212 | 4.0 | 14.0 | 0.00 | 0.00 | 0.00 | 69 | 1013.9 |
| 20260505082526 | 64 | 267 | 8.0 | 13.0 | 0.00 | 0.00 | 0.00 | 69 | 1013.9 |
| 20260505082026 | 65 | 237 | 6.0 | 12.0 | 0.00 | 0.00 | 0.00 | 69 | 1013.9 |
| 20260505081526 | 65 | 221 | 7.0 | 11.0 | 0.00 | 0.00 | 0.00 | 70 | 1013.9 |
| 20260505081026 | 65 | 206 | 6.0 | 11.0 | 0.00 | 0.00 | 0.00 | 69 | 1013.8 |
| 20260505080526 | 64 | 222 | 4.0 | 12.0 | 0.00 | 0.00 | 0.00 | 70 | 1013.8 |
| 20260505080026 | 64 | 219 | 2.0 | 12.0 | 0.00 | 0.00 | 0.00 | 69 | 1013.8 |
| 20260505075526 | 64 | 225 | 5.0 | 12.0 | 0.00 | 0.00 | 0.00 | 70 | 1013.8 |
| 20260505075026 | 64 | 209 | 6.0 | 11.0 | 0.00 | 0.00 | 0.00 | 70 | 1013.8 |
| 20260505074526 | 64 | 221 | 3.0 | 11.0 | 0.00 | 0.00 | 0.00 | 70 | 1013.8 |
| 20260505074026 | 64 | 213 | 4.0 | 7.0 | 0.00 | 0.00 | 0.00 | 70 | 1013.8 |
| 20260505073526 | 64 | 222 | 2.0 | 11.0 | 0.00 | 0.00 | 0.00 | 69 | 1013.8 |
| 20260505073026 | 65 | 258 | 1.0 | 11.0 | 0.00 | 0.00 | 0.00 | 69 | 1013.8 |
| 20260505072526 | 65 | 210 | 5.0 | 13.0 | 0.00 | 0.00 | 0.00 | 69 | 1013.8 |
| 20260505072025 | 65 | 182 | 5.0 | 13.0 | 0.00 | 0.00 | 0.00 | 69 | 1013.8 |
| 20260505071526 | 65 | 226 | 4.0 | 13.0 | 0.00 | 0.00 | 0.00 | 69 | 1013.8 |
| 20260505071026 | 65 | 227 | 6.0 | 14.0 | 0.00 | 0.00 | 0.00 | 69 | 1013.8 |
| 20260505065526 | 65 | 222 | 7.0 | 14.0 | 0.00 | 0.00 | 0.00 | 68 | 1013.6 |
| 20260505065026 | 65 | 205 | 6.0 | 16.0 | 0.00 | 0.00 | 0.00 | 68 | 1013.6 |
| 20260505064526 | 65 | 217 | 13.0 | 20.0 | 0.00 | 0.00 | 0.00 | 67 | 1013.6 |
| 20260505064026 | 65 | 252 | 13.0 | 20.0 | 0.00 | 0.00 | 0.00 | 68 | 1013.6 |
| 20260505063525 | 65 | 226 | 6.0 | 18.0 | 0.00 | 0.00 | 0.00 | 68 | 1013.6 |
| 20260505062525 | 66 | 223 | 3.0 | 16.0 | 0.00 | 0.00 | 0.00 | 67 | 1013.6 |
| 20260505062025 | 66 | 231 | 14.0 | 16.0 | 0.00 | 0.00 | 0.00 | 68 | 1013.6 |
| 20260505061525 | 66 | 226 | 15.0 | 15.0 | 0.00 | 0.00 | 0.00 | 67 | 1013.6 |
| 20260505061025 | 66 | 218 | 9.0 | 13.0 | 0.00 | 0.00 | 0.00 | 68 | 1013.7 |
| 20260505060525 | 66 | 207 | 4.0 | 13.0 | 0.00 | 0.00 | 0.00 | 68 | 1013.7 |
| 20260505055525 | 66 | 223 | 6.0 | 14.0 | 0.00 | 0.00 | 0.00 | 68 | 1013.7 |
| 20260505054525 | 66 | 196 | 5.0 | 18.0 | 0.00 | 0.00 | 0.00 | 67 | 1013.7 |
| 20260505054025 | 66 | 209 | 9.0 | 18.0 | 0.00 | 0.00 | 0.00 | 68 | 1013.7 |
| 20260505053525 | 66 | 198 | 13.0 | 16.0 | 0.00 | 0.00 | 0.00 | 68 | 1013.7 |
| 20260505053025 | 66 | 212 | 3.0 | 16.0 | 0.00 | 0.00 | 0.00 | 68 | 1013.7 |
| 20260505052525 | 66 | 293 | 6.0 | 16.0 | 0.00 | 0.00 | 0.00 | 67 | 1013.6 |
| 20260505052025 | 66 | 180 | 11.0 | 15.0 | 0.00 | 0.00 | 0.00 | 67 | 1013.6 |
| 20260505051525 | 66 | 233 | 5.0 | 14.0 | 0.00 | 0.00 | 0.00 | 67 | 1013.6 |
| 20260505051025 | 67 | 209 | 6.0 | 17.0 | 0.00 | 0.00 | 0.00 | 67 | 1013.5 |
| 20260505050525 | 67 | 221 | 5.0 | 17.0 | 0.00 | 0.00 | 0.00 | 66 | 1013.5 |
| 20260505041525 | 68 | 212 | 12.0 | 21.0 | 0.00 | 0.00 | 0.00 | 66 | 1013.8 |
| 20260505041025 | 68 | 200 | 12.0 | 21.0 | 0.00 | 0.00 | 0.00 | 66 | 1013.8 |
| 20260505040525 | 68 | 264 | 6.0 | 18.0 | 0.00 | 0.00 | 0.00 | 66 | 1013.8 |
| 20260505040025 | 68 | 202 | 9.0 | 16.0 | 0.00 | 0.00 | 0.00 | 66 | 1013.8 |
| 20260505035525 | 68 | 172 | 8.0 | 17.0 | 0.00 | 0.00 | 0.00 | 66 | 1013.8 |
| 20260505034525 | 68 | 210 | 9.0 | 19.0 | 0.00 | 0.00 | 0.00 | 66 | 1013.8 |
| 20260505034025 | 68 | 179 | 11.0 | 19.0 | 0.00 | 0.00 | 0.00 | 67 | 1013.7 |
| 20260505033525 | 68 | 188 | 7.0 | 18.0 | 0.00 | 0.00 | 0.00 | 66 | 1013.7 |
| 20260505033025 | 68 | 193 | 4.0 | 19.0 | 0.00 | 0.00 | 0.00 | 66 | 1013.7 |
| 20260505032525 | 68 | 205 | 9.0 | 19.0 | 0.00 | 0.00 | 0.00 | 67 | 1013.7 |
| 20260505032025 | 68 | 200 | 7.0 | 19.0 | 0.00 | 0.00 | 0.00 | 67 | 1013.7 |
| 20260505031525 | 68 | 178 | 13.0 | 19.0 | 0.00 | 0.00 | 0.00 | 67 | 1013.7 |
| 20260505031025 | 68 | 212 | 13.0 | 16.0 | 0.00 | 0.00 | 0.00 | 67 | 1013.4 |
| 20260505030525 | 68 | 181 | 5.0 | 14.0 | 0.00 | 0.00 | 0.00 | 68 | 1013.4 |
| 20260505025525 | 69 | 205 | 7.0 | 25.0 | 0.00 | 0.00 | 0.00 | 67 | 1013.3 |
| 20260505025025 | 69 | 218 | 5.0 | 23.0 | 0.00 | 0.00 | 0.00 | 67 | 1013.3 |
| 20260505024525 | 69 | 159 | 9.0 | 20.0 | 0.00 | 0.00 | 0.00 | 68 | 1013.3 |
| 20260505024025 | 69 | 186 | 7.0 | 19.0 | 0.00 | 0.00 | 0.00 | 68 | 1013.3 |
| 20260505023525 | 69 | 212 | 10.0 | 17.0 | 0.00 | 0.00 | 0.00 | 67 | 1013.3 |
| 20260505023025 | 69 | 176 | 5.0 | 21.0 | 0.00 | 0.00 | 0.00 | 68 | 1013.3 |
| 20260505022525 | 69 | 191 | 11.0 | 22.0 | 0.00 | 0.00 | 0.00 | 68 | 1013.2 |
| 20260505021525 | 69 | 204 | 10.0 | 16.0 | 0.00 | 0.00 | 0.00 | 67 | 1013.2 |
| 20260505020525 | 70 | 188 | 8.0 | 20.0 | 0.00 | 0.00 | 0.00 | 67 | 1013.1 |
| 20260505020025 | 70 | 171 | 13.0 | 20.0 | 0.00 | 0.00 | 0.00 | 67 | 1013.1 |
| 20260505015525 | 70 | 165 | 11.0 | 18.0 | 0.00 | 0.00 | 0.00 | 67 | 1012.9 |
| 20260505015026 | 70 | 176 | 14.0 | 18.0 | 0.00 | 0.00 | 0.00 | 66 | 1012.9 |
| 20260505014526 | 70 | 150 | 15.0 | 15.0 | 0.00 | 0.00 | 0.00 | 66 | 1012.9 |
| 20260505014025 | 70 | 169 | 5.0 | 12.0 | 0.00 | 0.00 | 0.00 | 65 | 1013.0 |
| 20260505013525 | 70 | 182 | 6.0 | 11.0 | 0.00 | 0.00 | 0.00 | 64 | 1013.0 |
| 20260505013025 | 71 | 174 | 6.0 | 14.0 | 0.00 | 0.00 | 0.00 | 63 | 1013.0 |
| 20260505012024 | 71 | 186 | 9.0 | 13.0 | 0.00 | 0.00 | 0.00 | 58 | 1012.8 |
| 20260505011524 | 71 | 162 | 7.0 | 13.0 | 0.00 | 0.00 | 0.00 | 55 | 1012.8 |
| 20260505011025 | 72 | 196 | 6.0 | 9.0 | 0.00 | 0.00 | 0.00 | 52 | 1012.7 |
| 20260505010524 | 72 | 198 | 3.0 | 9.0 | 0.00 | 0.00 | 0.00 | 51 | 1012.7 |
| 20260505010024 | 72 | 219 | 1.0 | 5.0 | 0.00 | 0.00 | 0.00 | 48 | 1012.7 |
| 20260505005525 | 72 | 222 | 0.0 | 4.0 | 0.00 | 0.00 | 0.00 | 50 | 1012.4 |
| 20260505004524 | 72 | 222 | 4.0 | 5.0 | 0.00 | 0.00 | 0.00 | 47 | 1012.4 |
| 20260505004025 | 73 | 222 | 2.0 | 4.0 | 0.00 | 0.00 | 0.00 | 48 | 1012.2 |
| 20260505003525 | 73 | 222 | 2.0 | 3.0 | 0.00 | 0.00 | 0.00 | 47 | 1012.2 |
| 20260505003025 | 73 | 222 | 0.0 | 5.0 | 0.00 | 0.00 | 0.00 | 46 | 1012.2 |
| 20260505002024 | 74 | 222 | 5.0 | 5.0 | 0.00 | 0.00 | 0.00 | 47 | 1012.2 |
| 20260505001024 | 74 | 224 | 0.0 | 7.0 | 0.00 | 0.00 | 0.00 | 45 | 1012.1 |
| 20260505000525 | 75 | 224 | 2.0 | 7.0 | 0.00 | 0.00 | 0.00 | 44 | 1012.1 |
| 20260505000024 | 75 | 227 | 3.0 | 9.0 | 0.00 | 0.00 | 0.00 | 44 | 1012.1 |
| 20260504235524 | 75 | 237 | 2.0 | 9.0 | 0.00 | 0.00 | 0.00 | 42 | 1011.8 |
| 20260504235025 | 75 | 248 | 5.0 | 10.0 | 0.00 | 0.00 | 0.00 | 42 | 1011.8 |
| 20260504234525 | 75 | 257 | 5.0 | 11.0 | 0.00 | 0.00 | 0.00 | 42 | 1011.8 |
| 20260504234024 | 76 | 224 | 4.0 | 13.0 | 0.00 | 0.00 | 0.00 | 43 | 1011.7 |
| 20260504233524 | 76 | 214 | 5.0 | 13.0 | 0.00 | 0.00 | 0.00 | 42 | 1011.7 |
| 20260504233025 | 76 | 226 | 3.0 | 11.0 | 0.00 | 0.00 | 0.00 | 42 | 1011.7 |
| 20260504232524 | 76 | 255 | 4.0 | 13.0 | 0.00 | 0.00 | 0.00 | 42 | 1011.4 |
| 20260504231524 | 77 | 189 | 4.0 | 12.0 | 0.00 | 0.00 | 0.00 | 41 | 1011.4 |
| 20260504230524 | 77 | 201 | 5.0 | 14.0 | 0.00 | 0.00 | 0.00 | 40 | 1011.5 |
| 20260504230024 | 77 | 203 | 12.0 | 14.0 | 0.00 | 0.00 | 0.00 | 41 | 1011.5 |
| 20260504225524 | 77 | 224 | 4.0 | 10.0 | 0.00 | 0.00 | 0.00 | 40 | 1011.7 |
| 20260504225024 | 77 | 233 | 2.0 | 13.0 | 0.00 | 0.00 | 0.00 | 41 | 1011.7 |
| 20260504224524 | 77 | 232 | 8.0 | 14.0 | 0.00 | 0.00 | 0.00 | 40 | 1011.7 |
| 20260504224025 | 77 | 220 | 4.0 | 16.0 | 0.00 | 0.00 | 0.00 | 40 | 1011.7 |
| 20260504223024 | 78 | 231 | 1.0 | 14.0 | 0.00 | 0.00 | 0.00 | 39 | 1011.7 |
| 20260504222524 | 78 | 217 | 7.0 | 13.0 | 0.00 | 0.00 | 0.00 | 38 | 1011.7 |
| 20260504222024 | 78 | 189 | 3.0 | 14.0 | 0.00 | 0.00 | 0.00 | 38 | 1011.7 |
| 20260504221524 | 78 | 181 | 0.0 | 14.0 | 0.00 | 0.00 | 0.00 | 38 | 1011.7 |
| 20260504221024 | 78 | 198 | 7.0 | 12.0 | 0.00 | 0.00 | 0.00 | 39 | 1011.7 |
| 20260504220524 | 78 | 268 | 3.0 | 14.0 | 0.00 | 0.00 | 0.00 | 37 | 1011.7 |
| 20260504220024 | 78 | 209 | 4.0 | 16.0 | 0.00 | 0.00 | 0.00 | 38 | 1011.7 |
| 20260504215524 | 78 | 197 | 2.0 | 16.0 | 0.00 | 0.00 | 0.00 | 37 | 1011.7 |
| 20260504214524 | 78 | 219 | 9.0 | 15.0 | 0.00 | 0.00 | 0.00 | 37 | 1011.7 |
| 20260504214024 | 78 | 220 | 10.0 | 15.0 | 0.00 | 0.00 | 0.00 | 38 | 1011.7 |
| 20260504213524 | 78 | 158 | 1.0 | 19.0 | 0.00 | 0.00 | 0.00 | 38 | 1011.7 |
| 20260504212524 | 78 | 184 | 4.0 | 14.0 | 0.00 | 0.00 | 0.00 | 37 | 1011.8 |
| 20260504212024 | 78 | 226 | 5.0 | 16.0 | 0.00 | 0.00 | 0.00 | 37 | 1011.8 |
| 20260504211524 | 78 | 214 | 9.0 | 16.0 | 0.00 | 0.00 | 0.00 | 37 | 1011.8 |
| 20260504210524 | 78 | 195 | 4.0 | 15.0 | 0.00 | 0.00 | 0.00 | 39 | 1011.7 |
| 20260504210024 | 78 | 203 | 11.0 | 14.0 | 0.00 | 0.00 | 0.00 | 38 | 1011.7 |
| 20260504205524 | 78 | 181 | 9.0 | 14.0 | 0.00 | 0.00 | 0.00 | 37 | 1011.7 |
| 20260504205024 | 78 | 282 | 4.0 | 13.0 | 0.00 | 0.00 | 0.00 | 38 | 1011.7 |
| 20260504204524 | 77 | 223 | 10.0 | 16.0 | 0.00 | 0.00 | 0.00 | 38 | 1011.7 |
| 20260504204024 | 77 | 206 | 10.0 | 20.0 | 0.00 | 0.00 | 0.00 | 39 | 1011.9 |
| 20260504203024 | 77 | 172 | 6.0 | 15.0 | 0.00 | 0.00 | 0.00 | 39 | 1011.9 |
| 20260504202524 | 77 | 222 | 2.0 | 12.0 | 0.00 | 0.00 | 0.00 | 39 | 1012.0 |
| 20260504202024 | 77 | 194 | 6.0 | 16.0 | 0.00 | 0.00 | 0.00 | 40 | 1012.0 |
| 20260504201024 | 77 | 180 | 16.0 | 20.0 | 0.00 | 0.00 | 0.00 | 40 | 1012.1 |
| 20260504200523 | 77 | 197 | 4.0 | 13.0 | 0.00 | 0.00 | 0.00 | 41 | 1012.1 |
| 20260504200023 | 76 | 220 | 9.0 | 13.0 | 0.00 | 0.00 | 0.00 | 42 | 1012.1 |
| 20260504195524 | 76 | 176 | 10.0 | 14.0 | 0.00 | 0.00 | 0.00 | 40 | 1012.2 |
| 20260504195023 | 76 | 221 | 9.0 | 14.0 | 0.00 | 0.00 | 0.00 | 43 | 1012.2 |
| 20260504194525 | 76 | 172 | 5.0 | 16.0 | 0.00 | 0.00 | 0.00 | 42 | 1012.2 |
| 20260504194024 | 76 | 243 | 5.0 | 16.0 | 0.00 | 0.00 | 0.00 | 42 | 1012.5 |
| 20260504193523 | 76 | 255 | 7.0 | 15.0 | 0.00 | 0.00 | 0.00 | 43 | 1012.5 |
| 20260504192523 | 76 | 238 | 3.0 | 12.0 | 0.00 | 0.00 | 0.00 | 41 | 1012.7 |
| 20260504192024 | 76 | 215 | 4.0 | 12.0 | 0.00 | 0.00 | 0.00 | 41 | 1012.7 |
| 20260504191523 | 75 | 293 | 3.0 | 14.0 | 0.00 | 0.00 | 0.00 | 45 | 1012.7 |
| 20260504190523 | 75 | 293 | 12.0 | 15.0 | 0.00 | 0.00 | 0.00 | 45 | 1013.0 |
| 20260504190024 | 75 | 210 | 9.0 | 17.0 | 0.00 | 0.00 | 0.00 | 43 | 1013.0 |
| 20260504185023 | 74 | 227 | 15.0 | 16.0 | 0.00 | 0.00 | 0.00 | 43 | 1013.3 |
| 20260504184523 | 74 | 193 | 14.0 | 16.0 | 0.00 | 0.00 | 0.00 | 41 | 1013.3 |
| 20260504183523 | 74 | 233 | 10.0 | 22.0 | 0.00 | 0.00 | 0.00 | 42 | 1013.4 |
| 20260504183023 | 74 | 215 | 0.0 | 17.0 | 0.00 | 0.00 | 0.00 | 44 | 1013.4 |
| 20260504182523 | 74 | 266 | 7.0 | 17.0 | 0.00 | 0.00 | 0.00 | 45 | 1013.5 |
| 20260504182023 | 74 | 206 | 10.0 | 15.0 | 0.00 | 0.00 | 0.00 | 45 | 1013.5 |
| 20260504181023 | 74 | 166 | 3.0 | 7.0 | 0.00 | 0.00 | 0.00 | 46 | 1013.7 |
| 20260504180523 | 74 | 214 | 5.0 | 13.0 | 0.00 | 0.00 | 0.00 | 46 | 1013.7 |
| 20260504180023 | 74 | 214 | 5.0 | 13.0 | 0.00 | 0.00 | 0.00 | 45 | 1013.7 |
| 20260504175523 | 74 | 177 | 7.0 | 13.0 | 0.00 | 0.00 | 0.00 | 45 | 1013.7 |
| 20260504175023 | 74 | 206 | 11.0 | 13.0 | 0.00 | 0.00 | 0.00 | 45 | 1013.7 |
| 20260504174523 | 74 | 249 | 6.0 | 16.0 | 0.00 | 0.00 | 0.00 | 44 | 1013.7 |
| 20260504174023 | 74 | 221 | 8.0 | 16.0 | 0.00 | 0.00 | 0.00 | 44 | 1013.8 |
| 20260504173522 | 73 | 285 | 7.0 | 11.0 | 0.00 | 0.00 | 0.00 | 45 | 1013.8 |
| 20260504173022 | 73 | 190 | 4.0 | 17.0 | 0.00 | 0.00 | 0.00 | 46 | 1013.8 |
| 20260504172522 | 73 | 234 | 3.0 | 17.0 | 0.00 | 0.00 | 0.00 | 45 | 1014.0 |
| 20260504172022 | 73 | 219 | 5.0 | 16.0 | 0.00 | 0.00 | 0.00 | 44 | 1014.0 |
| 20260504171522 | 73 | 230 | 10.0 | 16.0 | 0.00 | 0.00 | 0.00 | 46 | 1014.0 |
| 20260504171022 | 73 | 195 | 12.0 | 16.0 | 0.00 | 0.00 | 0.00 | 47 | 1014.1 |
| 20260504170522 | 73 | 189 | 5.0 | 12.0 | 0.00 | 0.00 | 0.00 | 46 | 1014.1 |
| 20260504151022 | 69 | 268 | 3.0 | 12.0 | 0.00 | 0.00 | 0.00 | 53 | 1015.2 |
| 20260504150522 | 68 | 243 | 6.0 | 12.0 | 0.00 | 0.00 | 0.00 | 54 | 1015.2 |
| 20260504141022 | 65 | 230 | 8.0 | 15.0 | 0.00 | 0.00 | 0.00 | 61 | 1015.4 |
| 20260504140521 | 65 | 204 | 15.0 | 15.0 | 0.00 | 0.00 | 0.00 | 61 | 1015.4 |
| 20260504130521 | 61 | 212 | 9.0 | 12.0 | 0.00 | 0.00 | 0.00 | 67 | 1015.7 |